IZ1UQG-1 Weather Reports


Display with metric or nautical units.
time (UTC)temp
F
wind
direction
speed
MPH
gust
MPH
rain 1hr
in
rain 24hr
in
rain mn
in
humidity
%
barometer
mb
20260505164855 59 0 0.0 0.0 9.09 0.96 0.00 78 1012.4
20260505164355 59 0 0.0 0.0 5.75 0.96 0.00 78 1012.4
20260505163855 59 0 0.0 0.0 3.09 0.96 0.00 78 1012.6
20260505163355 59 0 0.0 0.0 9.35 0.96 0.00 78 1012.6
20260505162855 59 0 0.0 0.0 0.62 0.96 0.00 78 1012.6
20260505162355 59 0 0.0 0.0 8.70 0.96 0.00 78 1012.6
20260505161855 59 0 0.0 0.0 8.89 8.65 0.00 78 1012.7
20260505161355 59 0 0.0 0.0 8.29 0.96 0.00 78 1012.5
20260505160855 59 0 0.0 0.0 8.34 0.96 0.00 78 1012.6
20260505160355 59 0 0.0 0.0 7.07 0.96 0.00 78 1012.6
20260505153355 60 0 0.0 0.0 7.13 0.96 0.00 78 1012.9
20260505152855 60 0 0.0 0.0 0.19 0.96 0.00 78 1012.9
20260505152355 60 0 0.0 0.0 7.99 0.96 0.00 78 1012.8
20260505151855 60 0 0.0 0.0 3.87 9.24 0.00 78 1012.8
20260505151355 60 0 0.0 0.0 6.83 0.96 0.00 78 1012.8
20260505150855 60 0 0.0 0.0 6.23 0.96 0.00 78 1012.8
20260505150355 60 0 0.0 0.0 0.07 0.96 0.00 78 1012.7
20260505140355 60 0 0.0 0.0 7.64 0.96 0.00 78 1013.0
20260505124855 60 0 0.0 0.0 7.07 0.96 0.00 78 1013.1
20260505124355 60 0 0.0 0.0 6.54 0.96 0.00 78 1013.2
20260505123855 60 0 0.0 0.0 3.38 0.96 0.00 78 1013.2
20260505123355 60 0 0.0 0.0 6.48 0.96 0.00 78 1013.2
20260505122855 60 0 0.0 0.0 5.48 0.96 0.00 78 1013.2
20260505122355 60 0 0.0 0.0 6.68 0.96 0.00 78 1013.2
20260505121855 60 0 0.0 0.0 6.05 8.32 0.00 78 1013.2
20260505121355 60 0 0.0 0.0 4.42 0.96 0.00 77 1013.1
20260505120855 60 0 0.0 0.0 5.11 0.96 0.00 77 1013.1
20260505120355 60 0 0.0 0.0 6.17 0.96 0.00 78 1013.1
20260505115855 60 0 0.0 0.0 3.85 0.96 0.00 77 1013.3
20260505115355 60 0 0.0 0.0 6.83 0.96 0.00 77 1013.4
20260505114855 60 0 0.0 0.0 4.60 0.96 0.00 77 1013.3
20260505114355 60 0 0.0 0.0 4.20 0.96 0.00 78 1013.3
20260505113855 60 0 0.0 0.0 3.22 0.96 0.00 78 1013.4
20260505113355 61 0 0.0 0.0 7.27 0.96 0.00 78 1013.4
20260505112855 61 0 0.0 0.0 5.26 0.96 0.00 78 1013.6
20260505112355 60 0 0.0 0.0 5.95 0.10 0.00 78 1013.6
20260505111855 60 0 0.0 0.0 4.09 8.34 0.00 78 1013.4
20260505111355 60 0 0.0 0.0 8.19 0.96 0.00 78 1013.6
20260505110855 60 0 0.0 0.0 7.30 0.96 0.00 78 1013.7
20260505110355 60 0 0.0 0.0 5.68 0.96 0.00 78 1013.7
20260505101855 60 0 0.0 0.0 2.14 8.57 0.00 76 1014.0
20260505101355 60 0 0.0 0.0 4.01 0.96 0.00 76 1014.1
20260505100855 60 0 0.0 0.0 4.26 0.96 0.00 76 1014.1
20260505100355 60 0 0.0 0.0 4.24 0.96 0.00 76 1014.2
20260505095855 60 0 0.0 0.0 9.85 0.96 0.00 76 1014.1
20260505095355 60 0 0.0 0.0 4.77 0.96 0.00 76 1014.0
20260505094855 60 0 0.0 0.0 3.87 0.96 0.00 76 1014.1
20260505094355 60 0 0.0 0.0 2.91 0.96 0.00 76 1014.0
20260505093855 60 0 0.0 0.0 0.69 0.96 0.00 75 1014.1
20260505093355 60 0 0.0 0.0 4.52 0.96 0.00 75 1014.1
20260505092855 60 0 0.0 0.0 4.22 0.96 0.00 75 1014.0
20260505092355 60 0 0.0 0.0 2.77 1.44 0.00 75 1013.9
20260505091855 59 0 0.0 0.0 2.73 8.38 0.00 75 1013.9
20260505091355 59 0 0.0 0.0 8.44 0.96 0.00 75 1013.8
20260505090855 59 0 0.0 0.0 6.19 0.96 0.00 75 1013.8
20260505090355 59 0 0.0 0.0 8.42 0.96 0.00 75 1014.0
20260505085855 59 0 0.0 0.0 6.52 0.96 0.00 75 1013.8
20260505085355 59 0 0.0 0.0 9.35 0.96 0.00 75 1013.7
20260505084855 59 0 0.0 0.0 7.99 0.96 0.00 74 1013.7
20260505084356 59 0 0.0 0.0 7.70 0.96 0.00 74 1013.7
20260505083855 59 0 0.0 0.0 4.09 0.96 0.00 74 1013.8
20260505083355 59 0 0.0 0.0 8.34 0.96 0.00 74 1013.7
20260505082856 59 0 0.0 0.0 7.89 0.96 0.00 74 1013.8
20260505082356 59 0 0.0 0.0 6.83 0.96 0.00 74 1013.8
20260505081856 59 0 0.0 0.0 3.26 0.42 0.00 74 1013.8
20260505081356 59 0 0.0 0.0 7.30 0.96 0.00 74 1013.9
20260505080856 59 0 0.0 0.0 7.58 0.96 0.00 73 1014.0
20260505080356 59 0 0.0 0.0 4.66 0.96 0.00 73 1014.0
20260505075856 59 0 0.0 0.0 1.34 0.96 0.00 73 1014.0
20260505075356 59 0 0.0 0.0 5.77 0.96 0.00 73 1014.1
20260505074856 59 0 0.0 0.0 7.93 0.96 0.00 73 1014.1
20260505074356 59 0 0.0 0.0 8.82 0.96 0.00 72 1014.2
20260505073856 59 0 0.0 0.0 8.42 0.96 0.00 73 1014.2
20260505073356 59 0 0.0 0.0 8.42 0.96 0.00 73 1014.2
20260505072856 59 0 0.0 0.0 6.34 0.96 0.00 73 1014.1
20260505072356 59 0 0.0 0.0 8.42 0.96 0.00 73 1014.0
20260505071856 58 0 0.0 0.0 4.70 0.65 0.00 73 1013.9
20260505071356 58 0 0.0 0.0 5.52 0.96 0.00 73 1013.8
20260505070856 59 0 0.0 0.0 5.19 0.96 0.00 72 1013.8
20260505070356 58 0 0.0 0.0 5.21 0.96 0.00 72 1013.7
20260505065856 58 0 0.0 0.0 3.60 0.96 0.00 72 1013.7
20260505065356 58 0 0.0 0.0 6.97 0.96 0.00 72 1013.5
20260505064856 59 0 0.0 0.0 5.21 0.96 0.00 72 1013.7
20260505064356 59 0 0.0 0.0 4.81 0.96 0.00 72 1013.6
20260505063856 59 0 0.0 0.0 8.09 0.96 0.00 72 1013.6
20260505063356 59 0 0.0 0.0 6.28 0.96 0.00 71 1013.7
20260505062856 59 0 0.0 0.0 6.28 0.96 0.00 71 1013.6
20260505062356 59 0 0.0 0.0 5.60 0.12 0.00 71 1013.5
20260505061856 59 0 0.0 0.0 3.60 8.24 0.00 70 1013.6
20260505061356 59 0 0.0 0.0 6.62 0.96 0.00 71 1013.6
20260505060856 59 0 0.0 0.0 6.64 0.96 0.00 71 1013.5
20260505060356 59 0 0.0 0.0 3.89 0.96 0.00 70 1013.4
20260505055856 59 0 0.0 0.0 5.40 0.96 0.00 70 1013.3
20260505055356 59 0 0.0 0.0 5.72 0.96 0.00 69 1013.2
20260505054856 59 0 0.0 0.0 4.30 0.96 0.00 69 1013.2
20260505054356 59 0 0.0 0.0 5.21 0.96 0.00 69 1013.2
20260505053856 59 0 0.0 0.0 4.58 0.96 0.00 69 1013.0
20260505053356 59 0 0.0 0.0 5.38 0.96 0.00 68 1012.9
20260505052856 59 0 0.0 0.0 4.17 0.96 0.00 67 1013.1
20260505052356 60 0 0.0 0.0 4.79 0.96 0.00 67 1013.0
20260505051856 60 0 0.0 0.0 2.83 8.67 0.00 67 1012.9
20260505051356 60 0 0.0 0.0 5.46 0.96 0.00 66 1012.7
20260505050856 60 0 0.0 0.0 4.79 0.96 0.00 66 1012.8
20260505050356 60 0 0.0 0.0 6.21 0.96 0.00 65 1012.7
20260505041356 61 0 0.0 0.0 5.03 0.96 0.00 61 1012.2
20260505040856 61 0 0.0 0.0 4.11 0.96 0.00 61 1012.2
20260505040356 61 0 0.0 0.0 2.87 0.96 0.00 61 1012.1
20260505035856 61 0 0.0 0.0 0.42 0.96 0.00 61 1012.0
20260505035356 61 0 0.0 0.0 4.66 0.96 0.00 60 1012.1
20260505034856 61 0 0.0 0.0 4.64 0.96 0.00 60 1011.9
20260505034356 62 0 0.0 0.0 3.36 0.96 0.00 59 1012.1
20260505033856 62 0 0.0 0.0 3.05 0.96 0.00 59 1012.0
20260505033356 62 0 0.0 0.0 6.07 0.96 0.00 58 1012.3
20260505032856 62 0 0.0 0.0 5.24 0.96 0.00 58 1012.3
20260505032356 62 0 0.0 0.0 3.42 0.67 0.00 57 1012.3
20260505031856 62 0 0.0 0.0 3.01 8.81 0.00 56 1012.4
20260505031356 62 0 0.0 0.0 7.34 0.96 0.00 55 1012.4
20260505030856 62 0 0.0 0.0 6.38 0.96 0.00 55 1012.3
20260505030356 62 0 0.0 0.0 6.46 0.96 0.00 54 1012.4
20260505025856 62 0 0.0 0.0 8.11 0.96 0.00 54 1012.6
20260505025356 62 0 0.0 0.0 7.87 0.96 0.00 54 1012.5
20260505024856 62 0 0.0 0.0 7.97 0.96 0.00 54 1012.5
20260505024356 62 0 0.0 0.0 4.58 0.96 0.00 54 1012.4
20260505023856 63 0 0.0 0.0 4.58 0.96 0.00 54 1012.3
20260505023356 63 0 0.0 0.0 8.21 0.96 0.00 54 1012.6
20260505022856 63 0 0.0 0.0 7.85 0.96 0.00 54 1012.7
20260505022356 63 0 0.0 0.0 8.17 0.96 0.00 53 1012.7
20260505021856 63 0 0.0 0.0 3.83 9.34 0.00 53 1012.6
20260505021356 63 0 0.0 0.0 7.68 0.96 0.00 53 1012.7
20260505020856 63 0 0.0 0.0 7.83 0.96 0.00 53 1012.8
20260505020356 63 0 0.0 0.0 6.11 0.96 0.00 53 1012.8
20260505015856 63 0 0.0 0.0 2.28 0.96 0.00 52 1012.7
20260505015356 63 0 0.0 0.0 7.83 0.96 0.00 52 1012.8
20260505014856 63 0 0.0 0.0 7.23 0.96 0.00 52 1012.8
20260505014356 63 0 0.0 0.0 5.48 0.96 0.00 52 1012.9
20260505013856 63 0 0.0 0.0 3.01 0.96 0.00 52 1013.0
20260505013356 63 0 0.0 0.0 5.48 0.96 0.00 52 1013.1
20260505012856 63 0 0.0 0.0 4.11 0.96 0.00 52 1013.0
20260505012356 63 0 0.0 0.0 3.01 0.96 0.00 52 1013.1
20260505011856 63 0 0.0 0.0 9.22 8.73 0.00 52 1013.4
20260505011356 63 0 0.0 0.0 3.52 0.96 0.00 52 1013.3
20260505010856 63 0 0.0 0.0 4.44 0.96 0.00 52 1013.4
20260505010356 63 0 0.0 0.0 2.38 0.96 0.00 52 1013.4
20260505005856 63 0 0.0 0.0 9.02 0.96 0.00 52 1013.6
20260505005356 63 0 0.0 0.0 4.48 0.96 0.00 52 1013.6
20260505004856 63 0 0.0 0.0 4.85 0.96 0.00 52 1013.6
20260505004356 63 0 0.0 0.0 4.40 0.96 0.00 52 1013.7
20260505003856 63 0 0.0 0.0 5.19 0.96 0.00 52 1013.9
20260505003356 63 0 0.0 0.0 6.72 0.96 0.00 52 1014.0
20260505002856 63 0 0.0 0.0 6.36 0.96 0.00 51 1013.8
20260505002356 63 0 0.0 0.0 7.50 0.96 0.00 51 1013.9
20260505001856 63 0 0.0 0.0 3.34 9.16 0.00 51 1013.9
20260505001356 63 0 0.0 0.0 4.73 0.96 0.00 51 1014.0
20260505000856 64 0 0.0 0.0 4.77 0.96 0.00 51 1014.1
20260505000358 64 0 0.0 0.0 4.22 0.96 0.00 51 1014.1
20260504235856 64 0 0.0 0.0 0.38 0.96 0.00 51 1014.2
20260504235356 64 0 0.0 0.0 3.58 0.96 0.00 51 1014.2
20260504234856 64 0 0.0 0.0 2.75 0.96 0.00 51 1014.4
20260504234356 64 0 0.0 0.0 3.97 0.96 0.00 51 1014.6
20260504233856 64 0 0.0 0.0 3.54 0.96 0.00 51 1014.8
20260504233356 64 0 0.0 0.0 2.03 0.96 0.00 51 1014.7
20260504232856 64 0 0.0 0.0 2.20 0.96 0.00 50 1014.6
20260504232356 64 0 0.0 0.0 1.18 0.88 0.00 50 1014.7
20260504231856 64 0 0.0 0.0 9.83 7.98 0.00 50 1014.7
20260504231356 64 0 0.0 0.0 2.77 0.96 0.00 50 1014.7
20260504230856 64 0 0.0 0.0 2.38 0.96 0.00 50 1014.9
20260504230356 64 0 0.0 0.0 1.16 0.96 0.00 50 1014.9
20260504225856 64 0 0.0 0.0 7.53 0.96 0.00 50 1014.9
20260504225356 64 0 0.0 0.0 0.59 0.96 0.00 49 1014.9
20260504224856 64 0 0.0 0.0 9.20 0.96 0.00 50 1015.2
20260504224356 64 0 0.0 0.0 7.02 0.96 0.00 49 1015.1
20260504223856 64 0 0.0 0.0 6.47 0.96 0.00 49 1015.2
20260504223356 64 0 0.0 0.0 9.97 0.96 0.00 49 1015.1
20260504222856 65 0 0.0 0.0 8.61 0.96 0.00 49 1015.1
20260504222356 65 0 0.0 0.0 7.69 0.24 0.00 49 1015.3
20260504221856 65 0 0.0 0.0 6.08 8.30 0.00 49 1015.1
20260504221356 65 0 0.0 0.0 9.67 0.96 0.00 49 1015.1
20260504220856 65 0 0.0 0.0 9.71 0.96 0.00 49 1015.2
20260504220356 65 0 0.0 0.0 9.06 0.96 0.00 49 1015.1
20260504215856 65 0 0.0 0.0 0.06 0.96 0.00 49 1015.3
20260504215357 65 0 0.0 0.0 1.71 0.96 0.00 49 1015.2
20260504214856 65 0 0.0 0.0 9.50 0.96 0.00 49 1015.3
20260504214356 66 0 0.0 0.0 9.16 0.96 0.00 49 1015.3
20260504213856 66 0 0.0 0.0 5.85 0.96 0.00 49 1015.3
20260504213356 66 0 0.0 0.0 8.02 0.96 0.00 48 1015.5
20260504212856 66 0 0.0 0.0 7.61 0.96 0.00 48 1015.2
20260504212356 66 0 0.0 0.0 6.81 0.96 0.00 48 1015.5
20260504211857 66 0 0.0 0.0 7.83 0.32 0.00 48 1015.3
20260504211357 66 0 0.0 0.0 8.59 0.96 0.00 48 1015.3
20260504210857 66 0 0.0 0.0 7.93 0.96 0.00 48 1015.5
20260504210356 66 0 0.0 0.0 7.87 0.96 0.00 48 1015.4
20260504205857 66 0 0.0 0.0 8.81 0.96 0.00 48 1015.3
20260504205357 67 0 0.0 0.0 6.69 0.96 0.00 48 1015.4
20260504204857 67 0 0.0 0.0 5.75 0.96 0.00 47 1015.4
20260504204357 67 0 0.0 0.0 5.45 0.96 0.00 47 1015.4
20260504203857 67 0 0.0 0.0 5.65 0.96 0.00 47 1015.5
20260504203357 67 0 0.0 0.0 7.10 0.96 0.00 47 1015.3
20260504202857 68 0 0.0 0.0 6.08 0.96 0.00 47 1015.3
20260504202357 68 0 0.0 0.0 4.67 1.87 0.00 47 1015.4
20260504201857 68 0 0.0 0.0 3.88 8.77 0.00 47 1015.4
20260504201357 68 0 0.0 0.0 4.55 0.96 0.00 47 1015.5
20260504200857 68 0 0.0 0.0 3.96 0.96 0.00 46 1015.4
20260504200357 68 0 0.0 0.0 2.12 0.96 0.00 46 1015.3
20260504195857 68 0 0.0 0.0 1.02 0.96 0.00 46 1015.4
20260504195357 69 0 0.0 0.0 5.12 0.96 0.00 46 1015.3
20260504194857 69 0 0.0 0.0 4.61 0.96 0.00 46 1015.2
20260504194357 69 0 0.0 0.0 2.82 0.96 0.00 46 1015.1
20260504193857 69 0 0.0 0.0 2.08 0.96 0.00 46 1015.1
20260504193357 69 0 0.0 0.0 5.02 0.96 0.00 46 1015.0
20260504192857 69 0 0.0 0.0 3.53 0.61 0.00 45 1014.9
20260504192357 69 0 0.0 0.0 3.61 1.71 0.00 45 1014.9
20260504191857 70 0 0.0 0.0 2.04 7.71 0.00 45 1014.9
20260504191357 70 0 0.0 0.0 7.16 0.96 0.00 45 1014.7
20260504190857 70 0 0.0 0.0 6.47 0.96 0.00 45 1014.7
20260504190357 70 0 0.0 0.0 5.24 0.96 0.00 45 1014.7
20260504185857 70 0 0.0 0.0 2.37 0.96 0.00 45 1014.5
20260504185357 70 0 0.0 0.0 7.73 0.96 0.00 45 1014.5
20260504184857 71 0 0.0 0.0 6.83 0.96 0.00 44 1014.4
20260504184357 71 0 0.0 0.0 7.65 0.96 0.00 44 1014.5
20260504183857 71 0 0.0 0.0 6.08 0.96 0.00 44 1014.3
20260504183357 71 0 0.0 0.0 0.28 0.96 0.00 44 1014.2
20260504182857 71 0 0.0 0.0 9.22 0.96 0.00 44 1014.3
20260504182357 71 0 0.0 0.0 9.48 0.96 0.00 44 1014.3
20260504181857 72 0 0.0 0.0 6.00 0.38 0.00 44 1014.2
20260504181357 72 0 0.0 0.0 8.99 0.96 0.00 44 1014.2
20260504180857 72 0 0.0 0.0 8.02 0.96 0.00 44 1014.2
20260504180357 72 0 0.0 0.0 8.57 0.96 0.00 44 1014.2
20260504175857 72 0 0.0 0.0 5.26 0.96 0.00 44 1014.2
20260504175357 73 0 0.0 0.0 7.67 0.96 0.00 44 1014.1
20260504174857 73 0 0.0 0.0 6.16 0.96 0.00 44 1013.9
20260504174357 73 0 0.0 0.0 5.12 0.96 0.00 43 1014.0
20260504173857 73 0 0.0 0.0 3.98 0.96 0.00 43 1014.0
20260504173357 73 0 0.0 0.0 5.00 0.96 0.00 43 1013.8
20260504172857 73 0 0.0 0.0 5.24 0.96 0.00 43 1013.7
20260504172357 73 0 0.0 0.0 5.51 0.96 0.00 43 1013.8
20260504171857 74 0 0.0 0.0 2.45 0.01 0.00 43 1013.7
20260504171357 74 0 0.0 0.0 4.10 0.96 0.00 43 1013.8
20260504170857 74 0 0.0 0.0 3.49 0.96 0.00 43 1013.7
20260504170357 74 0 0.0 0.0 3.26 0.96 0.00 42 1013.8